GLO1940 SBRJ-SBVT

Flight info

Callsign GLO1940
Flight time 0h 47m
Altitude 29000
Route TISVA UL206 TODET
Aircraft B738/M-SDE2E3FGHIRWXY/LB1

Departure

Time 2026-05-03 21:45
Airport Santos Dumont Airport (SBRJ)

Arrival

Time 2026-05-03 22:33
Airport Eurico de Aguiar Salles International Airport (SBVT)
Time Latitude Longitude Altitude Speed Heading
2026-05-03 21:18 -22.91319 -43.16573 21 ft 0 kts 268°
2026-05-03 21:33 -22.91318 -43.16559 21 ft 2 kts 265°
2026-05-03 21:34 -22.91316 -43.16541 21 ft 2 kts 259°
2026-05-03 21:34 -22.91312 -43.16524 23 ft 2 kts 244°
2026-05-03 21:34 -22.91302 -43.16510 24 ft 2 kts 197°
2026-05-03 21:34 -22.91289 -43.16508 25 ft 1 kts 177°
2026-05-03 21:35 -22.91288 -43.16508 25 ft 0 kts 177°
2026-05-03 21:40 -22.91327 -43.16505 21 ft 12 kts 176°
2026-05-03 21:40 -22.91406 -43.16493 21 ft 11 kts 155°
2026-05-03 21:40 -22.91442 -43.16462 21 ft 0 kts 135°
2026-05-03 21:43 -22.91447 -43.16456 21 ft 6 kts 135°
2026-05-03 21:43 -22.91491 -43.16411 21 ft 10 kts 137°
2026-05-03 21:44 -22.91545 -43.16357 19 ft 12 kts 137°
2026-05-03 21:44 -22.91611 -43.16275 19 ft 15 kts 120°
2026-05-03 21:44 -22.91601 -43.16246 19 ft 3 kts 14°
2026-05-03 21:44 -22.91598 -43.16247 19 ft 1 kts 357°
2026-05-03 21:45 -22.91345 -43.16266 20 ft 79 kts 357°
2026-05-03 21:45 -22.90531 -43.16319 28 ft 151 kts 356°
2026-05-03 21:45 -22.89425 -43.16375 573 ft 173 kts 355°
2026-05-03 21:45 -22.88125 -43.16528 1137 ft 198 kts 352°
2026-05-03 21:46 -22.86810 -43.16751 2341 ft 177 kts 349°
2026-05-03 21:46 -22.85646 -43.16790 3295 ft 171 kts 21°
2026-05-03 21:46 -22.84736 -43.15892 3508 ft 196 kts 71°
2026-05-03 21:46 -22.84749 -43.14385 3768 ft 211 kts 118°
2026-05-03 21:47 -22.85733 -43.13206 4216 ft 217 kts 141°
2026-05-03 21:47 -22.86758 -43.11960 4790 ft 224 kts 124°
2026-05-03 21:47 -22.87449 -43.10449 4963 ft 229 kts 111°
2026-05-03 21:47 -22.87872 -43.08780 4991 ft 231 kts 104°
2026-05-03 21:48 -22.88153 -43.07064 4993 ft 231 kts 101°
2026-05-03 21:48 -22.88370 -43.05335 5006 ft 231 kts 99°
2026-05-03 21:48 -22.88517 -43.03602 4999 ft 232 kts 91°
2026-05-03 21:48 -22.88412 -43.01852 5004 ft 233 kts 87°
2026-05-03 21:49 -22.88257 -43.00103 5004 ft 233 kts 87°
2026-05-03 21:49 -22.88109 -42.98350 5009 ft 233 kts 87°
2026-05-03 21:49 -22.87970 -42.96592 5005 ft 234 kts 88°
2026-05-03 21:49 -22.87837 -42.94833 5006 ft 234 kts 88°
2026-05-03 21:50 -22.87710 -42.93093 4999 ft 234 kts 88°
2026-05-03 21:50 -22.87582 -42.91335 5004 ft 234 kts 88°
2026-05-03 21:50 -22.87453 -42.89570 5082 ft 235 kts 88°
2026-05-03 21:50 -22.87323 -42.87789 5590 ft 239 kts 87°
2026-05-03 21:51 -22.87193 -42.85996 6422 ft 238 kts 87°
2026-05-03 21:51 -22.87063 -42.84196 7171 ft 244 kts 86°
2026-05-03 21:51 -22.86651 -42.82390 7744 ft 256 kts 65°
2026-05-03 21:51 -22.85800 -42.80581 7969 ft 282 kts 62°
2026-05-03 21:52 -22.84842 -42.78671 8577 ft 292 kts 61°
2026-05-03 21:52 -22.83862 -42.76728 9353 ft 295 kts 61°
2026-05-03 21:52 -22.82875 -42.74757 10135 ft 299 kts 60°
2026-05-03 21:52 -22.81859 -42.72718 10484 ft 319 kts 61°
2026-05-03 21:53 -22.80771 -42.70523 10720 ft 340 kts 61°
2026-05-03 21:53 -22.79641 -42.68234 11277 ft 348 kts 61°
2026-05-03 21:53 -22.78500 -42.65916 12000 ft 350 kts 62°
2026-05-03 21:53 -22.77369 -42.63613 12725 ft 352 kts 62°
2026-05-03 21:54 -22.76212 -42.61258 13403 ft 356 kts 62°
2026-05-03 21:54 -22.75041 -42.58874 14060 ft 360 kts 62°
2026-05-03 21:54 -22.73856 -42.56462 14606 ft 365 kts 62°
2026-05-03 21:54 -22.72653 -42.54015 15098 ft 371 kts 61°
2026-05-03 21:55 -22.71428 -42.51524 15604 ft 377 kts 61°
2026-05-03 21:55 -22.70186 -42.48999 16105 ft 383 kts 61°
2026-05-03 21:55 -22.68922 -42.46433 16615 ft 389 kts 61°
2026-05-03 21:55 -22.67643 -42.43836 17118 ft 394 kts 60°
2026-05-03 21:56 -22.66341 -42.41194 17592 ft 400 kts 60°
2026-05-03 21:56 -22.65020 -42.38514 18085 ft 405 kts 60°
2026-05-03 21:56 -22.63683 -42.35802 18544 ft 411 kts 60°
2026-05-03 21:56 -22.62347 -42.33095 18959 ft 415 kts 60°
2026-05-03 21:57 -22.60979 -42.30322 19419 ft 418 kts 60°
2026-05-03 21:57 -22.59603 -42.27537 19871 ft 422 kts 60°
2026-05-03 21:57 -22.58062 -42.24836 20284 ft 422 kts 46°
2026-05-03 21:57 -22.55932 -42.22671 20749 ft 420 kts 36°
2026-05-03 21:58 -22.53656 -42.20656 21206 ft 423 kts 35°
2026-05-03 21:58 -22.51353 -42.18646 21650 ft 426 kts 34°
2026-05-03 21:58 -22.49037 -42.16618 22076 ft 430 kts 35°
2026-05-03 21:58 -22.46710 -42.14563 22506 ft 434 kts 35°
2026-05-03 21:59 -22.44396 -42.12501 22955 ft 438 kts 35°
2026-05-03 21:59 -22.42039 -42.10391 23399 ft 441 kts 35°
2026-05-03 21:59 -22.39670 -42.08264 23798 ft 445 kts 35°
2026-05-03 21:59 -22.37272 -42.06110 24149 ft 448 kts 35°
2026-05-03 22:00 -22.34867 -42.03948 24513 ft 450 kts 35°
2026-05-03 22:00 -22.32454 -42.01781 24880 ft 452 kts 35°
2026-05-03 22:00 -22.30036 -41.99611 25235 ft 453 kts 35°
2026-05-03 22:00 -22.27600 -41.97424 25549 ft 455 kts 35°
2026-05-03 22:01 -22.25181 -41.95257 25849 ft 458 kts 34°
2026-05-03 22:01 -22.22720 -41.93054 26164 ft 461 kts 34°
2026-05-03 22:01 -22.20231 -41.90826 26493 ft 463 kts 34°
2026-05-03 22:01 -22.17748 -41.88602 26874 ft 464 kts 35°
2026-05-03 22:02 -22.15271 -41.86386 27377 ft 462 kts 34°
2026-05-03 22:02 -22.13629 -41.84917 27679 ft 462 kts 34°
2026-05-03 22:02 -22.11152 -41.82701 28099 ft 462 kts 34°
2026-05-03 22:02 -22.08674 -41.80480 28542 ft 461 kts 34°
2026-05-03 22:03 -22.05407 -41.77551 29127 ft 460 kts 34°
2026-05-03 22:03 -22.03736 -41.76054 29173 ft 464 kts 34°
2026-05-03 22:03 -21.97943 -41.70866 29160 ft 461 kts 33°
2026-05-03 22:04 -21.93875 -41.67227 29188 ft 457 kts 33°
2026-05-03 22:04 -21.88942 -41.62839 29188 ft 461 kts 33°
2026-05-03 22:05 -21.83975 -41.58424 29158 ft 463 kts 34°
2026-05-03 22:05 -21.78998 -41.53997 29142 ft 463 kts 34°
2026-05-03 22:06 -21.74070 -41.49616 29146 ft 461 kts 34°
2026-05-03 22:06 -21.69140 -41.45239 29127 ft 457 kts 34°
2026-05-03 22:07 -21.64242 -41.40896 29124 ft 454 kts 34°
2026-05-03 22:07 -21.59395 -41.36618 29128 ft 452 kts 34°
2026-05-03 22:08 -21.54531 -41.32334 29139 ft 451 kts 34°
2026-05-03 22:08 -21.49671 -41.28053 29148 ft 451 kts 34°
2026-05-03 22:09 -21.44833 -41.23771 29133 ft 443 kts 34°
2026-05-03 22:09 -21.42498 -41.21694 29135 ft 430 kts 34°
2026-05-03 22:10 -21.37918 -41.17635 29158 ft 425 kts 33°
2026-05-03 22:10 -21.35637 -41.15619 29004 ft 427 kts 33°
2026-05-03 22:10 -21.33346 -41.13594 28676 ft 424 kts 34°
2026-05-03 22:10 -21.31083 -41.11591 28277 ft 421 kts 34°
2026-05-03 22:11 -21.28832 -41.09605 27931 ft 416 kts 34°
2026-05-03 22:11 -21.26599 -41.07641 27543 ft 414 kts 34°
2026-05-03 22:11 -21.24379 -41.05690 27167 ft 411 kts 34°
2026-05-03 22:11 -21.22204 -41.03780 26789 ft 408 kts 34°
2026-05-03 22:12 -21.20013 -41.01856 26421 ft 406 kts 34°
2026-05-03 22:12 -21.17832 -40.99941 26047 ft 404 kts 34°
2026-05-03 22:12 -21.15659 -40.98034 25609 ft 404 kts 35°
2026-05-03 22:12 -21.13464 -40.96108 25098 ft 407 kts 35°
2026-05-03 22:13 -21.11272 -40.94184 24682 ft 407 kts 35°
2026-05-03 22:13 -21.09087 -40.92266 24291 ft 406 kts 36°
2026-05-03 22:13 -21.06904 -40.90352 23901 ft 405 kts 36°
2026-05-03 22:13 -21.04729 -40.88446 23457 ft 404 kts 36°
2026-05-03 22:14 -21.02557 -40.86543 23050 ft 402 kts 36°
2026-05-03 22:14 -21.00402 -40.84656 22665 ft 399 kts 36°
2026-05-03 22:14 -20.98289 -40.82805 22291 ft 396 kts 36°
2026-05-03 22:14 -20.96160 -40.80941 21928 ft 392 kts 36°
2026-05-03 22:15 -20.94056 -40.79100 21557 ft 389 kts 36°
2026-05-03 22:15 -20.91966 -40.77271 21194 ft 386 kts 37°
2026-05-03 22:15 -20.89894 -40.75459 20839 ft 384 kts 37°
2026-05-03 22:15 -20.87851 -40.73674 20480 ft 381 kts 37°
2026-05-03 22:16 -20.85802 -40.71882 20128 ft 378 kts 37°
2026-05-03 22:16 -20.83769 -40.70106 19777 ft 376 kts 37°
2026-05-03 22:16 -20.81751 -40.68345 19431 ft 371 kts 37°
2026-05-03 22:16 -20.79625 -40.66864 19054 ft 358 kts 21°
2026-05-03 22:17 -20.77352 -40.65844 18759 ft 352 kts 19°
2026-05-03 22:17 -20.75107 -40.64888 18426 ft 351 kts 19°
2026-05-03 22:17 -20.72838 -40.63926 18035 ft 350 kts 19°
2026-05-03 22:17 -20.70585 -40.62961 17672 ft 348 kts 19°
2026-05-03 22:18 -20.68345 -40.61993 17324 ft 346 kts 20°
2026-05-03 22:18 -20.66118 -40.61022 16977 ft 344 kts 20°
2026-05-03 22:18 -20.63911 -40.60056 16658 ft 342 kts 20°
2026-05-03 22:18 -20.61711 -40.59091 16305 ft 340 kts 20°
2026-05-03 22:19 -20.59528 -40.58130 15969 ft 338 kts 20°
2026-05-03 22:19 -20.57364 -40.57178 15645 ft 336 kts 20°
2026-05-03 22:19 -20.55209 -40.56231 15314 ft 334 kts 20°
2026-05-03 22:19 -20.53063 -40.55289 14996 ft 332 kts 20°
2026-05-03 22:20 -20.50927 -40.54351 14667 ft 331 kts 20°
2026-05-03 22:20 -20.48874 -40.53450 14352 ft 330 kts 20°
2026-05-03 22:20 -20.46678 -40.52485 13997 ft 330 kts 20°
2026-05-03 22:20 -20.44585 -40.51566 13637 ft 329 kts 20°
2026-05-03 22:21 -20.42469 -40.50637 13274 ft 327 kts 20°
2026-05-03 22:21 -20.40365 -40.49714 12930 ft 326 kts 21°
2026-05-03 22:21 -20.38271 -40.48796 12586 ft 325 kts 21°
2026-05-03 22:21 -20.36187 -40.47882 12247 ft 323 kts 21°
2026-05-03 22:22 -20.34075 -40.47085 11831 ft 323 kts 13°
2026-05-03 22:22 -20.31888 -40.46530 11414 ft 324 kts 11°
2026-05-03 22:22 -20.29673 -40.46032 10983 ft 326 kts 11°
2026-05-03 22:22 -20.27445 -40.45520 10525 ft 329 kts 12°
2026-05-03 22:23 -20.25200 -40.44979 10057 ft 330 kts 13°
2026-05-03 22:23 -20.23023 -40.44440 10018 ft 309 kts 13°
2026-05-03 22:23 -20.20984 -40.43931 9917 ft 293 kts 13°
2026-05-03 22:23 -20.19020 -40.43440 9512 ft 290 kts 13°
2026-05-03 22:24 -20.17059 -40.42951 9013 ft 289 kts 13°
2026-05-03 22:24 -20.15095 -40.42462 8534 ft 289 kts 13°
2026-05-03 22:24 -20.13168 -40.41981 8139 ft 286 kts 13°
2026-05-03 22:24 -20.11250 -40.41438 7694 ft 285 kts 24°
2026-05-03 22:25 -20.09662 -40.40211 7217 ft 282 kts 52°
2026-05-03 22:25 -20.08716 -40.38422 6812 ft 276 kts 73°
2026-05-03 22:25 -20.08139 -40.36493 6376 ft 274 kts 76°
2026-05-03 22:25 -20.07577 -40.34549 5914 ft 274 kts 75°
2026-05-03 22:26 -20.07014 -40.32637 5649 ft 265 kts 76°
2026-05-03 22:26 -20.06474 -40.30841 5562 ft 245 kts 75°
2026-05-03 22:26 -20.05979 -40.29182 5442 ft 226 kts 79°
2026-05-03 22:26 -20.05966 -40.27624 5201 ft 203 kts 109°
2026-05-03 22:27 -20.06511 -40.26271 4773 ft 198 kts 125°
2026-05-03 22:27 -20.07239 -40.25031 4400 ft 196 kts 127°
2026-05-03 22:27 -20.07973 -40.23810 4021 ft 195 kts 127°
2026-05-03 22:27 -20.08664 -40.22647 3879 ft 180 kts 127°
2026-05-03 22:28 -20.09324 -40.21532 3516 ft 177 kts 127°
2026-05-03 22:28 -20.09990 -40.20431 3140 ft 175 kts 133°
2026-05-03 22:28 -20.10930 -40.19740 2931 ft 162 kts 167°
2026-05-03 22:28 -20.12045 -40.19751 2772 ft 165 kts 199°
2026-05-03 22:29 -20.13032 -40.20354 2678 ft 167 kts 208°
2026-05-03 22:29 -20.14019 -40.20988 2470 ft 163 kts 208°
2026-05-03 22:29 -20.14979 -40.21607 2284 ft 159 kts 209°
2026-05-03 22:29 -20.15903 -40.22201 2083 ft 152 kts 208°
2026-05-03 22:30 -20.16797 -40.22778 1937 ft 151 kts 207°
2026-05-03 22:30 -20.17727 -40.23380 1696 ft 156 kts 210°
2026-05-03 22:30 -20.18622 -40.23964 1446 ft 146 kts 209°
2026-05-03 22:30 -20.19457 -40.24511 1306 ft 137 kts 209°
2026-05-03 22:31 -20.20238 -40.25021 1149 ft 133 kts 208°
2026-05-03 22:31 -20.21056 -40.25520 962 ft 135 kts 209°
2026-05-03 22:31 -20.21858 -40.26042 773 ft 134 kts 212°
2026-05-03 22:31 -20.22642 -40.26600 557 ft 138 kts 213°
2026-05-03 22:32 -20.23467 -40.27148 417 ft 140 kts 212°
2026-05-03 22:32 -20.24301 -40.27709 228 ft 141 kts 211°
2026-05-03 22:32 -20.25107 -40.28232 39 ft 130 kts 212°
2026-05-03 22:32 -20.25793 -40.28683 14 ft 91 kts 211°
2026-05-03 22:33 -20.26144 -40.28914 17 ft 31 kts 212°
2026-05-03 22:33 -20.26275 -40.28999 20 ft 19 kts 211°
2026-05-03 22:33 -20.26382 -40.29074 20 ft 12 kts 225°
2026-05-03 22:33 -20.26344 -40.29128 17 ft 11 kts 347°
2026-05-03 22:34 -20.26267 -40.29145 17 ft 11 kts 355°
2026-05-03 22:34 -20.26193 -40.29130 17 ft 11 kts 28°
2026-05-03 22:34 -20.26130 -40.29088 17 ft 11 kts 32°
2026-05-03 22:34 -20.26068 -40.29047 18 ft 10 kts 32°
2026-05-03 22:35 -20.26009 -40.29007 17 ft 10 kts 33°
2026-05-03 22:35 -20.25952 -40.28968 18 ft 10 kts 32°
2026-05-03 22:35 -20.25895 -40.28931 17 ft 9 kts 30°
2026-05-03 22:35 -20.25840 -40.28895 18 ft 9 kts 33°
2026-05-03 22:36 -20.25790 -40.28868 17 ft 3 kts 358°
2026-05-03 22:36 -20.25775 -40.28887 17 ft 3 kts 301°
2026-05-03 22:36 -20.25767 -40.28901 18 ft 0 kts 302°